Regional Weather Roundup
Issued by NWS Memphis, TN

Home | Current Version | Previous Version | Text Only | Print | Product List | Glossary On
Versions: 1 2 3 4 5 6 7 8 9 10 11 12 13 14 15 16 17 18 19 20 21 22 23 24 25 26 27 28 29 30 31 32 33 34 35 36 37 38 39 40 41 42 43 44 45 46 47 48 49 50
000
ASUS44 KMEG 282000
RWRMEG
MEMPHIS CWA HOURLY WEATHER ROUNDUP
NATIONAL WEATHER SERVICE MEMPHIS TN
300 PM CDT FRI APR 28 2017

...WEST TENNESSEE...

CITY           SKY/WX    TMP DP  RH WIND       PRES   REMARKS
MEMPHIS INTL   CLOUDY    83  73  72 S16G28    29.77F
NWS MEMPHIS      N/A     83 N/A N/A MISG        N/A
JACKSON        CLOUDY    79  71  76 S13       29.81F
DYERSBURG      PTSUNNY   78  70  76 S9G17     29.78F
PARIS          CLOUDY    70  66  88 S12       29.82F


...EASTERN ARKANSAS...

CITY           SKY/WX    TMP DP  RH WIND       PRES   REMARKS
JONESBORO      CLOUDY    76  70  82 S13       29.74S
WEST MEMPHIS   CLOUDY    79  74  84 S14       29.75F
BATESVILLE     CLOUDY    68  64  88 E3        29.74F
WALNUT RIDGE   CLOUDY    70  64  83 CALM      29.75R
BLYTHEVILLE    PTSUNNY   79  71  76 S15G28    29.76S
SEARCY         CLOUDY    76  72  87 S7        29.74S
STUTTGART      PTSUNNY   82  64  54 S18       29.73F
PINE BLUFF     PTSUNNY   85  72  65 S18G25    29.71F HX  91
MONTICELLO     MOSUNNY   88  70  55 S15G30    29.73S HX  93


...NORTH MISSISSIPPI...

CITY           SKY/WX    TMP DP  RH WIND       PRES   REMARKS
TUPELO         PTSUNNY   85  69  58 S17G28    29.83F
OLIVE BRANCH   PTSUNNY  N/A N/A N/A S14G23    29.77F
TUNICA         CLOUDY    82  72  69 S21G26    29.76F
CLARKSDALE     MOSUNNY   86  75  70 S14G23    29.76S HX  95
GREENWOOD      PTSUNNY   88  73  61 S17       29.78F HX  95
COLUMBUS       SUNNY     86  73  65 S16G22    29.84F HX  93
STARKVILLE     PTSUNNY   86  70  58 S14G23    29.85F HX  90
GOLDEN TRIANGL PTSUNNY   86  68  54 S21G28    29.83S


...SOUTHEAST MISSOURI...

CITY           SKY/WX    TMP DP  RH WIND       PRES   REMARKS
KENNETT        CLOUDY    75  72  88 S13G21    29.75R HAZE
MALDEN         MOSUNNY   75  68  78 S17       29.75S
WEST PLAINS    CLOUDY    61  60  97 S3        29.75R FOG
POPLAR BLUFF   CLOUDY    67  65  93 SW3       29.74S
CAPE GIRARDEAU CLOUDY    67  61  81 CALM      29.75R


...NORTHWEST ALABAMA...

CITY           SKY/WX    TMP DP  RH WIND       PRES   REMARKS
MUSCLE SHOALS  PTSUNNY   82  68  62 S14G23    29.89F


...MIDDLE TENNESSEE...

CITY           SKY/WX    TMP DP  RH WIND       PRES   REMARKS
NASHVILLE      LGT RAIN  75  68  78 S15       29.91S
CLARKSVILLE    CLOUDY    75  66  73 S10       29.84F


...WESTERN KENTUCKY...

CITY           SKY/WX    TMP DP  RH WIND       PRES   REMARKS
PADUCAH        CLOUDY    74  64  71 S16G23    29.75F
FORT CAMPBELL  CLOUDY    73  68  84 S9        29.83F


...CENTRAL ARKANSAS...

CITY           SKY/WX    TMP DP  RH WIND       PRES   REMARKS
LITTLE ROCK    CLOUDY    80  72  76 S13       29.72S


SKY/WX REPORTED AS FAIR MEANS FEW OR NO CLOUDS BELOW
12 THOUSAND FEET.




USA.gov is the U.S. government's official web portal to all federal, state and local government web resources and services.